www.pogodaiklimat.ru

Погода и климат >> Архив погоды >> Китай >> Хунань >> Тундао


ПОГОДА в Тундао

  • Прогноз погоды в Тундао
  • Монитор погоды в Тундао

АРХИВ ПОГОДЫ в Тундао

Время (UTC), дата Ветер
(напр.,м/с)
 
Видим.   Явления Облачность Т
(С)
Тd
(С)
f
(%)
Тe
(С)
Тes
(С)
Комфортность P
(гПа)
Po
(гПа)
Тmin
(С)
Tmax
(С)
R
(мм)
R24
(мм)
S
(см)
18 14.07 З 1 4200 м дымка ?/? +22.3 +22.3 100 +30 +30 очень
душно
1003.3 958.3 +29.4
21 14.07 штиль 0 4100 м в посл. час дождь н/о +22.7 +22.7 100 +31 +31 очень
душно
1003.0 958.0
00 15.07 штиль 0 3900 м слаб. дождь 9/9 1500 м
[]
+23.5 +23.5 100 +32 +32 очень
душно
1003.8 958.9 0.7
03 15.07 ЮЗ 3 7000 м {дождь} 9/9 1000 м
[]
+28.1 +23.7 77 +39 +40 очень
душно
1003.7 959.5
06 15.07 ЮЗ 3 6000 м в посл. час дождь 9/9 1000 м
[]
+26.8 +24.8 89 +38 +40 очень
душно
1003.2 958.8 +22.3 0.2
09 15.07 ЮЗ 2 7000 м дымка {дождь} 9/9 1000 м
[]
+27.3 +24.6 85 +39 +39 очень
душно
1001.9 957.7
12 15.07 Ю 2 7000 м дымка {дождь} 9/9 1000 м
[]
+25.9 +24.5 92 +36 +36 очень
душно
1003.0 958.5 0.0
18 15.07 ЮЗ 1 6000 м дымка ?/? +24.5 +24.5 100 +34 +34 очень
душно
1004.1 959.5 +28.2
21 15.07 штиль 0 н/о дымка н/о +24.3 +24.3 100 +34 +34 очень
душно
1004.0 959.2
00 16.07 ЮЗ 1 н/о слаб. дождь 10/10 300 м
[]
+24.6 +24.4 99 +34 +34 очень
душно
1005.8 961.0 0.3
03 16.07 ЮЗ 2 7000 м в посл. час дождь 9/9 1000 м
[]
+26.8 +24.8 89 +38 +40 очень
душно
1005.3 960.8
06 16.07 Ю 3 7000 м {дождь} 9/9 1000 м
[]
+29.2 +25.2 79 +42 +44 опасность
перегрева
1003.7 959.7 +24.1 0.3
09 16.07 Ю 5 9000 м 6/6 1000 м
[]
+30.9 +23.6 65 +42 +43 опасность
перегрева
1001.9 958.2
12 16.07 З 1 н/о дымка 8/8
[]
+27.3 +25.5 90 +40 +40 очень
душно
1002.7 958.4
18 16.07 Ю 1 4800 м дымка ?/? +24.4 +24.4 100 +34 +34 очень
душно
1003.6 958.9 +31.0
21 16.07 штиль 0 4500 м дымка н/о +23.5 +23.5 100 +32 +32 очень
душно
1003.0 958.2
00 17.07 ЮВ 1 н/о дымка 9/9 1000 м
[]
+25.0 +24.0 94 +34 +35 очень
душно
1004.5 959.8
03 17.07 Ю 4 7000 м 8/8 1000 м
[]
+30.1 +24.5 72 +42 +45 опасность
перегрева
1004.3 960.4
06 17.07 Ю 4 11 км 4/4 1000 м
[]
+32.9 +22.7 55 +43 +51 опасность
перегрева
1001.9 958.5 +23.4
09 17.07 Ю 2 12 км 3/3 1000 м
[]
+34.3 +21.7 48 +42 +47 опасность
перегрева
999.5 956.4
12 17.07 ЮЗ 1 7000 м 6/6 1000 м
[]
+28.3 +24.7 81 +40 +40 очень
душно
1001.1 957.0
18 17.07 Ю 1 н/о дымка ?/? +23.8 +23.8 100 +32 +32 очень
душно
1001.4 956.7 +34.5
21 17.07 З 1 2100 м дымка н/о +22.9 +22.9 100 +32 +32 очень
душно
1001.9 957.0
00 18.07 Ю 1 1500 м дымка 9/9 1500 м
[]
+23.5 +23.5 100 +32 +32 очень
душно
1002.8 958.0
03 18.07 Ю 4 10 км 6/6 1000 м
[]
+31.5 +24.9 68 +45 +50 опасность
перегрева
1001.4 957.8
06 18.07 ЮЗ 2 14 км 8/8 1000 м
[]
+33.6 +23.6 56 +45 +49 опасность
перегрева
999.0 955.8 +22.8
09 18.07 З 1 13 км 9/9 1000 м
[]
+34.6 +22.7 50 +44 +45 опасность
перегрева
998.3 955.2
12 18.07 З 1 6000 м дымка 10/10 1500 м
[]
+29.0 +26.4 86 +44 +44 опасность
перегрева
1000.1 956.2
18 18.07 С 1 6000 м слаб. дождь ?/? +26.4 +25.0 92 +38 +38 очень
душно
999.9 955.6 +35.1
21 18.07 Ю 3 3100 м дождь н/о +25.2 +25.0 99 +36 +36 очень
душно
1001.2 956.7
00 19.07 штиль 0 4000 м слаб. дождь 9/9 1500 м
[]
+24.5 +24.3 99 +34 +35 очень
душно
1002.4 957.7 21
03 19.07 Ю 3 10 км {дождь} 9/9 1000 м
[]
+27.5 +24.1 82 +38 +40 очень
душно
1003.7 959.4
06 19.07 З 2 11 км {дождь} 9/9 1000 м
[]
+28.7 +23.8 75 +40 +42 очень
душно
1001.9 957.9 +23.6 0.1
09 19.07 СВ 1 13 км 8/8 1000 м
[]
+31.5 +23.3 62 +42 +44 опасность
перегрева
999.6 956.1
12 19.07 ЮЗ 1 8000 м 10/10 1500 м
[]
+26.7 +25.8 95 +40 +40 очень
душно
1001.9 957.6
18 19.07 Ю 1 6000 м дымка ?/? +24.3 +24.3 100 +34 +34 очень
душно
1003.2 958.5 +31.5
21 19.07 Ю 1 4700 м дымка н/о +24.5 +24.5 100 +34 +34 очень
душно
1003.2 958.5
00 20.07 штиль 0 6000 м дымка 9/9 1500 м
[]
+24.8 +24.8 100 +35 +36 очень
душно
1005.5 960.7
03 20.07 Ю 3 8000 м 8/8 1000 м
[]
+29.6 +25.1 77 +43 +46 опасность
перегрева
1005.0 961.0
06 20.07 Ю 3 11 км 6/6 1000 м
[]
+33.0 +23.9 59 +45 +51 опасность
перегрева
1002.9 959.4 +24.2
09 20.07 Ю 2 10 км 9/9
[]
+32.9 +24.4 61 +45 +46 опасность
перегрева
1001.0 957.6
12 20.07 Ю 1 7000 м дымка 9/9
[]
+29.7 +25.2 77 +43 +43 опасность
перегрева
1003.1 958.7
18 20.07 Ю 1 н/о дымка ?/? +25.7 +25.7 100 +38 +38 очень
душно
1003.4 958.9 +33.3
21 20.07 З 1 4900 м дымка н/о +25.2 +25.2 100 +36 +36 очень
душно
1003.5 958.9
00 21.07 Ю 1 6000 м дымка 9/9 1500 м
[]
+26.7 +25.7 94 +39 +40 очень
душно
1005.1 960.6
03 21.07 Ю 3 9000 м 9/9 1000 м
[]
+29.8 +24.9 75 +43 +44 опасность
перегрева
1005.1 961.1
06 21.07 Ю 4 12 км 6/6 1000 м
[]
+32.7 +23.6 59 +44 +49 опасность
перегрева
1002.9 959.4 +25.1
09 21.07 Ю 2 10 км 8/8 1000 м
[]
+32.6 +24.4 62 +45 +46 опасность
перегрева
1001.3 957.8
12 21.07 Ю 1 7000 м 9/9 1000 м
[]
+29.1 +25.5 81 +43 +43 опасность
перегрева
1002.1 958.1

 

Местоположение метеостанции Тундао (Хунань, Китай): широта 26.17 долгота 109.78 высота над уровнем моря 397 м.

В архиве по умолчанию представлена погода в Тундао за последнюю неделю. Архивные данные за месяц целиком и за предыдущие месяцы, начиная с января 2011 года, Вы можете получить, выбрав интересующий диапазон дат из раскрывающегося списка и нажав кнопку "Ввод!".


*Определитесь, кто Вы:
робот инопланетянин человек

Внимание! Время в таблицах - всемирное. Для получения местного времени необходимо прибавить поправку, которая равна 8 ч.

Смотрите также архив погоды в соседних городах и на ближайших метеорологических станциях:

Погода в Угугане (Хунань, Китай) (105 км)
Погода в Гуйлине (Гуанси-Чжуанский автономный район, Китай) (107 км)
Погода в Рунцзяне (Гуйчжоу, Китай) (127 км)
Погода в Сансуе (Гуйчжоу, Китай) (143 км)
Погода в Чжицзяне (Хунань, Китай) (143 км)
Погода в Линлине (Хунань, Китай) (183 км)
Погода в Шаояне (Хунань, Китай) (204 км)
Погода в Лючжоу (Гуанси-Чжуанский автономный район, Китай) (206 км)
Погода в Душане (Гуйчжоу, Китай) (226 км)
Погода в Мэншане (Гуанси-Чжуанский автономный район, Китай) (231 км)

Пояснения к столбцам:

Ветер - указаны скорость ветра в м/с - средняя за 10 мин, порывы в срок и между сроками (в фигурных скобках) и направление, откуда дует ветер: С - северный, СВ - северо-восточный, В - восточный, ЮВ - юго-восточный, Ю - южный, ЮЗ - юго-западный, З - западный, СЗ - северо-западный.
Видимость - горизонтальная дальность видимости в метрах или километрах. При видимости от 1 до 10 км при отсутствии осадков обычно наблюдается дымка, при ухудшении видимости до 1 км и менее - туман. В сухую погоду видимость может ухудшаться дымом, пылью или мглою.
Явления - указаны атмосферные явления, наблюдавшиеся в срок или в последний час перед сроком; фигурными скобками обозначены явления, наблюдавшиеся между сроками (за 1-3 часа до срока); квадратными скобками обозначены град или гололедные отложения с указанием их диаметра в мм.
Облачность - указаны через наклонную черту общая и нижняя облачность в баллах и высота нижней границы облаков в метрах; квадратными скобками обозначены формы облаков: Ci - перистые, Cs - перисто-слоистые, Cc - перисто-кучевые, Ac - высококучевые, As - высокослоистые, Sc - слоисто-кучевые, Ns - слоисто-дождевые, Cu - кучевые, Cb - кучево-дождевые. Подробнее классификацию облаков см. в Атласе облаков (PDF).
T - Температура воздуха - температура, измеренная на высоте 2 м над землей.
Td - Температура точки росы - температура, при понижении до которой содержащийся в воздухе водяной пар достигнет насыщения.
f - Относительная влажность воздуха - влажноcть воздуха, измеренная на высоте 2 м над землей.
Te - Эффективная температура - температура, которую ощущает одетый по сезону человек в тени. Характеристика душности погоды. При расчете учитывается влияние влажности воздуха и скорости ветра на теплоощущения человека.
Tes - Эффективная температура на солнце - температура, которую ощущает человек, с поправкой на солнечный нагрев. Характеристика знойности погоды. Зависит от высоты солнца над горизонтом, облачности и скорости ветра. Ночью, в пасмурную погоду, а также при ветре 12 м/с и более поправка равна нулю.
P - Атмосферное давление - приведенное к уровню моря атмосферное давление.
Po - Атмосферное давление - измеренное на уровне метеостанции атмосферное давление.
Tmin - Минимальная температура - минимум температуры воздуха на высоте 2 м над землей.
Tmax - Максимальная температура - максимум температуры воздуха на высоте 2 м над землей.
R - Количество осадков - Количество выпавших осадков за период времени, мм. При наведении курсора мыши на число - период времени, за который выпало указанное количество осадков.
R24 - Количество осадков - Количество выпавших осадков за 24 часа, мм.
S - Снежный покров - Высота снежного покрова, см. При наведении курсора мыши на число - состояние снежного покрова и степень покрытия местности в баллах.